DW0243 Weather Reports


time (UTC)temp
C
wind
direction
speed
KPH
gust
KPH
rain 1hr
cm
rain 24hr
cm
rain mn
cm
humidity
%
barometer
mb
20190421083205 17 70 4.8 12.9 0.00 0.00 0.00 42 1021.3
20190421082705 16 78 3.2 11.3 0.00 0.00 0.00 43 1021.3
20190421082205 16 71 3.2 11.3 0.00 0.00 0.00 43 1021.4
20190421081705 16 53 3.2 11.3 0.00 0.00 0.00 45 1021.4
20190421081205 15 86 1.6 4.8 0.00 0.00 0.00 46 1021.5
20190421080704 15 330 0.0 4.8 0.00 0.00 0.00 52 1021.5
20190421080205 13 284 0.0 4.8 0.00 0.00 0.00 54 1021.5
20190421075705 13 285 0.0 1.6 0.00 0.00 0.00 54 1021.5
20190421075205 13 98 0.0 1.6 0.00 0.00 0.00 56 1021.6
20190421074705 12 98 0.0 1.6 0.00 0.00 0.00 56 1021.7
20190421074205 12 98 0.0 1.6 0.00 0.00 0.00 57 1021.7
20190421073704 12 98 0.0 1.6 0.00 0.00 0.00 58 1021.7
20190421073205 11 98 0.0 1.6 0.00 0.00 0.00 63 1021.7
20190421072705 11 99 0.0 4.8 0.00 0.00 0.00 64 1021.8
20190421071705 10 99 0.0 0.0 0.00 0.00 0.00 68 1021.9
20190421071204 10 124 0.0 0.0 0.00 0.00 0.00 70 1022.0
20190421070705 9 124 0.0 0.0 0.00 0.00 0.00 71 1021.9
20190421070205 9 124 0.0 0.0 0.00 0.00 0.00 71 1022.0
20190421065705 8 124 0.0 0.0 0.00 0.00 0.00 72 1022.1
20190421065204 8 124 0.0 0.0 0.00 0.00 0.00 73 1022.1
20190421064704 8 124 0.0 0.0 0.00 0.00 0.00 74 1022.1
20190421064205 7 124 0.0 0.0 0.00 0.00 0.00 75 1022.1
20190421063705 7 124 0.0 0.0 0.00 0.00 0.00 77 1022.2
20190421063205 7 124 0.0 0.0 0.00 0.00 0.00 78 1022.2
20190421062705 7 124 0.0 0.0 0.00 0.00 0.00 77 1022.3
20190421062205 7 124 0.0 0.0 0.00 0.00 0.00 77 1022.3
20190421061705 7 124 0.0 0.0 0.00 0.00 0.00 77 1022.3
20190421061205 6 124 0.0 0.0 0.00 0.00 0.00 76 1022.4
20190421060704 6 124 0.0 0.0 0.00 0.00 0.00 76 1022.4
20190421060205 6 124 0.0 0.0 0.00 0.00 0.00 77 1022.5
20190421055705 6 124 0.0 0.0 0.00 0.00 0.00 77 1022.4
20190421055204 6 124 0.0 0.0 0.00 0.00 0.00 78 1022.4
20190421054705 5 124 0.0 0.0 0.00 0.00 0.00 78 1022.5
20190421054205 5 124 0.0 0.0 0.00 0.00 0.00 79 1022.5
20190421053705 5 124 0.0 0.0 0.00 0.00 0.00 80 1022.6
20190421053205 5 124 0.0 0.0 0.00 0.00 0.00 81 1022.6
20190421052704 4 124 0.0 0.0 0.00 0.00 0.00 82 1022.6
20190421052206 4 124 0.0 0.0 0.00 0.00 0.00 82 1022.6
20190421051705 4 124 0.0 0.0 0.00 0.00 0.00 82 1022.5
20190421051204 3 124 0.0 0.0 0.00 0.00 0.00 84 1022.6
20190421050705 3 124 0.0 0.0 0.00 0.00 0.00 84 1022.6
20190421050205 3 124 0.0 0.0 0.00 0.00 0.00 85 1022.6
20190421045705 3 124 0.0 0.0 0.00 0.00 0.00 86 1022.6
20190421045205 3 124 0.0 0.0 0.00 0.00 0.00 87 1022.6
20190421044705 2 124 0.0 0.0 0.00 0.00 0.00 87 1022.6
20190421044205 2 124 0.0 0.0 0.00 0.00 0.00 87 1022.6
20190421043705 2 124 0.0 0.0 0.00 0.00 0.00 87 1022.6
20190421043205 2 124 0.0 0.0 0.00 0.00 0.00 87 1022.7
20190421042704 2 124 0.0 0.0 0.00 0.00 0.00 87 1022.7
20190421042205 2 124 0.0 0.0 0.00 0.00 0.00 87 1022.7
20190421041706 2 124 0.0 0.0 0.00 0.00 0.00 86 1022.7
20190421041205 2 124 0.0 0.0 0.00 0.00 0.00 86 1022.6
20190421040704 3 124 0.0 0.0 0.00 0.00 0.00 86 1022.6
20190421040204 3 124 0.0 0.0 0.00 0.00 0.00 85 1022.6
20190421035705 3 124 0.0 0.0 0.00 0.00 0.00 85 1022.6
20190421035205 3 124 0.0 0.0 0.00 0.00 0.00 85 1022.7
20190421034705 3 124 0.0 0.0 0.00 0.00 0.00 85 1022.7
20190421034205 3 124 0.0 0.0 0.00 0.00 0.00 85 1022.7
20190421033704 3 124 0.0 0.0 0.00 0.00 0.00 85 1022.7
20190421033206 3 124 0.0 0.0 0.00 0.00 0.00 86 1022.8
20190421032705 3 124 0.0 0.0 0.00 0.00 0.00 86 1022.8
20190421032206 3 124 0.0 0.0 0.00 0.00 0.00 86 1022.9
20190421031705 3 124 0.0 0.0 0.00 0.00 0.00 85 1022.9
20190421031204 3 124 0.0 0.0 0.00 0.00 0.00 85 1022.9
20190421030710 3 124 0.0 0.0 0.00 0.00 0.00 84 1023.0
20190421030205 3 124 0.0 0.0 0.00 0.00 0.00 83 1023.0
20190421025704 3 124 0.0 0.0 0.00 0.00 0.00 83 1023.1
20190421025205 3 124 0.0 0.0 0.00 0.00 0.00 83 1023.2
20190421024705 3 124 0.0 0.0 0.00 0.00 0.00 83 1023.2
20190421024205 3 124 0.0 0.0 0.00 0.00 0.00 83 1023.2
20190421023705 4 124 0.0 0.0 0.00 0.00 0.00 82 1023.3
20190421023204 4 124 0.0 0.0 0.00 0.00 0.00 82 1023.3
20190421022705 4 124 0.0 0.0 0.00 0.00 0.00 82 1023.4
20190421022205 4 124 0.0 0.0 0.00 0.00 0.00 81 1023.4
20190421021705 4 124 0.0 0.0 0.00 0.00 0.00 81 1023.4
20190421021205 4 124 0.0 0.0 0.00 0.00 0.00 81 1023.4
20190421020704 4 124 0.0 0.0 0.00 0.00 0.00 81 1023.5
20190421020206 5 124 0.0 0.0 0.00 0.00 0.00 80 1023.6
20190421015705 5 124 0.0 0.0 0.00 0.00 0.00 80 1023.6
20190421015204 5 124 0.0 0.0 0.00 0.00 0.00 80 1023.7
20190421014705 5 124 0.0 0.0 0.00 0.00 0.00 79 1023.7
20190421014206 5 124 0.0 0.0 0.00 0.00 0.00 80 1023.7
20190421013705 5 124 0.0 0.0 0.00 0.00 0.00 79 1023.7
20190421013205 5 124 0.0 0.0 0.00 0.00 0.00 80 1023.8
20190421012704 5 124 0.0 0.0 0.00 0.00 0.00 80 1023.8
20190421012205 5 124 0.0 0.0 0.00 0.00 0.00 79 1023.8
20190421011705 5 124 0.0 0.0 0.00 0.00 0.00 79 1024.0
20190421011205 5 124 0.0 0.0 0.00 0.00 0.00 78 1024.0
20190421010704 5 124 0.0 0.0 0.00 0.00 0.00 78 1024.0
20190421010205 6 124 0.0 0.0 0.00 0.00 0.00 78 1024.0
20190421005705 6 124 0.0 0.0 0.00 0.00 0.00 78 1024.1
20190421005204 6 124 0.0 0.0 0.00 0.00 0.00 78 1024.2
20190421004705 6 124 0.0 0.0 0.00 0.00 0.00 77 1024.3
20190421004205 6 124 0.0 0.0 0.00 0.00 0.00 77 1024.3
20190421003705 6 124 0.0 0.0 0.00 0.00 0.00 76 1024.4
20190421003205 6 124 0.0 0.0 0.00 0.00 0.00 76 1024.4
20190421002705 6 124 0.0 0.0 0.00 0.00 0.00 76 1024.5
20190421002205 6 124 0.0 0.0 0.00 0.00 0.00 75 1024.5
20190421001705 6 124 0.0 0.0 0.00 0.00 0.00 75 1024.6
20190421001205 7 124 0.0 0.0 0.00 0.00 0.00 74 1024.6
20190421000710 7 124 0.0 0.0 0.00 0.00 0.00 74 1024.7
20190421000205 7 124 0.0 0.0 0.00 0.00 0.00 73 1024.7
20190420235705 7 124 0.0 3.2 0.00 0.00 0.00 73 1024.7
20190420235205 7 124 0.0 3.2 0.00 0.00 0.00 73 1024.7
20190420234705 7 124 0.0 3.2 0.00 0.00 0.00 72 1024.8
20190420234204 7 124 0.0 0.0 0.00 0.00 0.00 72 1024.8
20190420233705 7 123 0.0 0.0 0.00 0.00 0.00 72 1025.0
20190420233205 8 123 0.0 0.0 0.00 0.00 0.00 71 1025.0
20190420232704 8 123 0.0 0.0 0.00 0.00 0.00 71 1025.1
20190420232205 8 123 0.0 1.6 0.00 0.00 0.00 70 1025.1
20190420231705 8 123 0.0 1.6 0.00 0.00 0.00 70 1025.1
20190420231205 8 123 0.0 1.6 0.00 0.00 0.00 70 1025.1
20190420230705 8 123 0.0 1.6 0.00 0.00 0.00 69 1025.1
20190420230205 8 123 0.0 0.0 0.00 0.00 0.00 69 1025.2
20190420225705 8 123 0.0 0.0 0.00 0.00 0.00 68 1025.2
20190420225204 8 123 0.0 0.0 0.00 0.00 0.00 68 1025.2
20190420224704 9 123 0.0 0.0 0.00 0.00 0.00 67 1025.3
20190420224205 9 123 0.0 0.0 0.00 0.00 0.00 66 1025.3
20190420223705 9 123 0.0 0.0 0.00 0.00 0.00 65 1025.3
20190420223205 10 123 0.0 0.0 0.00 0.00 0.00 65 1025.3
20190420222705 10 123 0.0 0.0 0.00 0.00 0.00 64 1025.3
20190420222204 10 123 0.0 0.0 0.00 0.00 0.00 63 1025.3
20190420221704 10 123 0.0 0.0 0.00 0.00 0.00 63 1025.2
20190420221205 10 123 0.0 0.0 0.00 0.00 0.00 62 1025.2
20190420220705 10 123 0.0 3.2 0.00 0.00 0.00 62 1025.2
20190420220207 10 123 0.0 3.2 0.00 0.00 0.00 61 1025.2
20190420215705 11 123 0.0 0.0 0.00 0.00 0.00 60 1025.2
20190420215205 11 123 0.0 0.0 0.00 0.00 0.00 59 1025.2
20190420214705 11 123 0.0 0.0 0.00 0.00 0.00 58 1025.1
20190420214205 11 123 0.0 0.0 0.00 0.00 0.00 58 1025.1
20190420213705 11 123 0.0 0.0 0.00 0.00 0.00 58 1025.2
20190420213205 11 123 0.0 0.0 0.00 0.00 0.00 58 1025.2
20190420212705 11 123 0.0 0.0 0.00 0.00 0.00 58 1025.2
20190420212204 11 123 0.0 0.0 0.00 0.00 0.00 58 1025.2
20190420211705 11 123 0.0 0.0 0.00 0.00 0.00 57 1025.2
20190420211205 11 123 0.0 3.2 0.00 0.00 0.00 57 1025.2
20190420210704 11 123 0.0 3.2 0.00 0.00 0.00 57 1025.3
20190420210204 11 123 0.0 4.8 0.00 0.00 0.00 58 1025.2
20190420205705 11 123 0.0 4.8 0.00 0.00 0.00 58 1025.2
20190420205205 11 123 0.0 4.8 0.00 0.00 0.00 58 1025.2
20190420204705 11 123 0.0 0.0 0.00 0.00 0.00 58 1025.1
20190420204204 11 123 0.0 0.0 0.00 0.00 0.00 57 1025.0
20190420203705 11 123 0.0 3.2 0.00 0.00 0.00 57 1025.1
20190420203205 11 123 0.0 3.2 0.00 0.00 0.00 56 1025.0
20190420202705 12 123 0.0 1.6 0.00 0.00 0.00 56 1025.0
20190420202204 12 123 0.0 1.6 0.00 0.00 0.00 55 1025.0
20190420201705 12 123 0.0 3.2 0.00 0.00 0.00 54 1025.0
20190420201204 12 123 0.0 6.4 0.00 0.00 0.00 54 1024.9
20190420200704 12 123 1.6 6.4 0.00 0.00 0.00 53 1024.9
20190420200205 12 123 1.6 4.8 0.00 0.00 0.00 54 1024.9
20190420195705 13 129 1.6 4.8 0.00 0.00 0.00 52 1024.8
20190420195205 13 130 0.0 6.4 0.00 0.00 0.00 51 1024.9
20190420194705 13 130 1.6 6.4 0.00 0.00 0.00 51 1024.8
20190420194204 13 130 1.6 6.4 0.00 0.00 0.00 51 1024.8
20190420193705 13 92 1.6 4.8 0.00 0.00 0.00 51 1024.9
20190420193205 14 92 1.6 6.4 0.00 0.00 0.00 50 1024.8
20190420192705 14 92 1.6 6.4 0.00 0.00 0.00 49 1024.7
20190420192207 15 92 3.2 6.4 0.00 0.00 0.00 48 1024.8
20190420191705 15 50 1.6 4.8 0.00 0.00 0.00 47 1024.7
20190420191205 15 46 1.6 4.8 0.00 0.00 0.00 46 1024.7
20190420190704 16 46 1.6 3.2 0.00 0.00 0.00 45 1024.7
20190420190205 16 46 0.0 3.2 0.00 0.00 0.00 44 1024.6
20190420185705 16 46 0.0 3.2 0.00 0.00 0.00 43 1024.6
20190420185205 17 46 0.0 1.6 0.00 0.00 0.00 43 1024.6
20190420184704 17 46 0.0 0.0 0.00 0.00 0.00 40 1024.6
20190420184205 18 46 0.0 0.0 0.00 0.00 0.00 38 1024.6
20190420183705 18 46 0.0 0.0 0.00 0.00 0.00 36 1024.5
20190420183205 18 46 0.0 0.0 0.00 0.00 0.00 36 1024.5
20190420182705 19 46 0.0 0.0 0.00 0.00 0.00 35 1024.5
20190420182205 19 46 0.0 0.0 0.00 0.00 0.00 34 1024.5
20190420181704 19 46 0.0 0.0 0.00 0.00 0.00 34 1024.5
20190420181205 20 46 0.0 1.6 0.00 0.00 0.00 33 1024.4
20190420180704 20 46 0.0 3.2 0.00 0.00 0.00 32 1024.4
20190420180205 20 46 0.0 8.0 0.00 0.00 0.00 32 1024.5
20190420175704 20 46 1.6 8.0 0.00 0.00 0.00 31 1024.4
20190420175205 21 22 1.6 6.4 0.00 0.00 0.00 30 1024.4
20190420174704 21 40 1.6 11.3 0.00 0.00 0.00 30 1024.5
20190420174205 21 37 1.6 11.3 0.00 0.00 0.00 30 1024.4
20190420173705 21 32 3.2 11.3 0.00 0.00 0.00 30 1024.5
20190420173206 21 75 1.6 11.3 0.00 0.00 0.00 29 1024.5
20190420172705 21 33 1.6 11.3 0.00 0.00 0.00 29 1024.5
20190420172205 21 20 3.2 6.4 0.00 0.00 0.00 29 1024.5
20190420171705 22 86 1.6 6.4 0.00 0.00 0.00 28 1024.4
20190420171205 22 27 1.6 6.4 0.00 0.00 0.00 28 1024.5
20190420170705 22 88 3.2 9.7 0.00 0.00 0.00 28 1024.5
20190420170204 22 48 3.2 14.5 0.00 0.00 0.00 27 1024.6
20190420165704 22 41 4.8 14.5 0.00 0.00 0.00 26 1024.6
20190420165205 22 46 6.4 14.5 0.00 0.00 0.00 26 1024.7
20190420164705 22 77 3.2 12.9 0.00 0.00 0.00 27 1024.7
20190420164205 22 94 3.2 9.7 0.00 0.00 0.00 28 1024.7
20190420163705 22 74 3.2 12.9 0.00 0.00 0.00 27 1024.8
20190420163205 22 13 3.2 12.9 0.00 0.00 0.00 27 1024.7
20190420162704 22 49 4.8 12.9 0.00 0.00 0.00 26 1024.8
20190420162205 22 79 4.8 14.5 0.00 0.00 0.00 26 1024.8
20190420161705 22 98 4.8 14.5 0.00 0.00 0.00 26 1024.9
20190420161205 22 78 6.4 14.5 0.00 0.00 0.00 27 1024.8
20190420160705 22 355 6.4 14.5 0.00 0.00 0.00 27 1024.8
20190420160205 22 67 4.8 14.5 0.00 0.00 0.00 26 1024.8
20190420155705 23 73 3.2 8.0 0.00 0.00 0.00 26 1024.9
20190420155205 23 82 1.6 8.0 0.00 0.00 0.00 27 1024.9
20190420154704 22 62 1.6 8.0 0.00 0.00 0.00 25 1024.9
20190420154205 23 63 1.6 11.3 0.00 0.00 0.00 25 1024.9
20190420153705 23 78 1.6 17.7 0.00 0.00 0.00 26 1025.0
20190420153205 22 60 3.2 17.7 0.00 0.00 0.00 25 1025.1
20190420152705 22 65 4.8 17.7 0.00 0.00 0.00 25 1025.1
20190420152205 22 86 3.2 12.9 0.00 0.00 0.00 26 1025.1
20190420151705 22 85 3.2 12.9 0.00 0.00 0.00 25 1025.1
20190420151205 23 100 3.2 11.3 0.00 0.00 0.00 26 1025.2
20190420150704 23 70 1.6 11.3 0.00 0.00 0.00 26 1025.2
20190420150206 23 63 1.6 16.1 0.00 0.00 0.00 26 1025.2
20190420145705 22 5 4.8 16.1 0.00 0.00 0.00 26 1025.3
20190420145206 22 55 6.4 16.1 0.00 0.00 0.00 27 1025.3
20190420144705 22 52 3.2 12.9 0.00 0.00 0.00 26 1025.4
20190420144205 22 78 3.2 14.5 0.00 0.00 0.00 25 1025.4
20190420143704 22 67 4.8 14.5 0.00 0.00 0.00 25 1025.5
20190420143205 23 90 4.8 14.5 0.00 0.00 0.00 27 1025.6
20190420142705 23 43 3.2 6.4 0.00 0.00 0.00 27 1025.5
20190420142205 23 77 1.6 8.0 0.00 0.00 0.00 29 1025.6
20190420141705 23 14 1.6 14.5 0.00 0.00 0.00 27 1025.6
20190420141205 22 44 4.8 14.5 0.00 0.00 0.00 27 1025.7
20190420140704 22 28 3.2 14.5 0.00 0.00 0.00 25 1025.8
20190420140205 22 11 1.6 9.7 0.00 0.00 0.00 26 1025.9
20190420135705 22 117 3.2 12.9 0.00 0.00 0.00 27 1025.9
20190420135205 22 68 3.2 12.9 0.00 0.00 0.00 27 1026.1
20190420134704 22 14 3.2 11.3 0.00 0.00 0.00 26 1026.1
20190420134205 22 275 3.2 12.9 0.00 0.00 0.00 26 1026.1
20190420133705 22 324 3.2 12.9 0.00 0.00 0.00 27 1026.2
20190420133205 22 49 3.2 12.9 0.00 0.00 0.00 26 1026.2
20190420132705 22 90 4.8 12.9 0.00 0.00 0.00 27 1026.2
20190420132205 22 355 3.2 12.9 0.00 0.00 0.00 26 1026.4
20190420131705 22 28 1.6 11.3 0.00 0.00 0.00 26 1026.4
20190420131205 22 86 3.2 12.9 0.00 0.00 0.00 25 1026.5
20190420130704 22 48 3.2 12.9 0.00 0.00 0.00 26 1026.5
20190420130205 22 36 3.2 11.3 0.00 0.00 0.00 27 1026.6
20190420125705 22 5 4.8 14.5 0.00 0.00 0.00 26 1026.7
20190420125204 22 69 3.2 14.5 0.00 0.00 0.00 28 1026.7
20190420124705 22 95 3.2 8.0 0.00 0.00 0.00 27 1026.7
20190420124204 22 38 1.6 11.3 0.00 0.00 0.00 27 1026.8
20190420123705 22 55 3.2 11.3 0.00 0.00 0.00 28 1026.8
20190420123205 22 57 3.2 11.3 0.00 0.00 0.00 26 1026.8
20190420122705 22 78 1.6 11.3 0.00 0.00 0.00 27 1026.9
20190420122205 22 53 1.6 12.9 0.00 0.00 0.00 28 1026.9
20190420121705 22 60 3.2 12.9 0.00 0.00 0.00 28 1026.9
20190420121204 22 77 4.8 12.9 0.00 0.00 0.00 27 1027.0
20190420120705 22 66 3.2 16.1 0.00 0.00 0.00 27 1027.1
20190420120205 21 296 6.4 16.1 0.00 0.00 0.00 27 1027.0
20190420115705 21 145 8.0 16.1 0.00 0.00 0.00 26 1027.2
20190420115205 21 60 4.8 14.5 0.00 0.00 0.00 27 1027.2
20190420114705 21 107 3.2 14.5 0.00 0.00 0.00 27 1027.3
20190420114205 21 120 6.4 14.5 0.00 0.00 0.00 27 1027.3
20190420113704 21 99 6.4 16.1 0.00 0.00 0.00 27 1027.4
20190420113205 21 111 6.4 17.7 0.00 0.00 0.00 27 1027.3
20190420112705 21 102 4.8 17.7 0.00 0.00 0.00 29 1027.4
20190420112205 21 77 4.8 17.7 0.00 0.00 0.00 29 1027.5
20190420111705 21 76 4.8 14.5 0.00 0.00 0.00 28 1027.6
20190420111205 21 31 4.8 14.5 0.00 0.00 0.00 30 1027.6
20190420110704 21 90 6.4 14.5 0.00 0.00 0.00 30 1027.7
20190420110205 21 73 4.8 11.3 0.00 0.00 0.00 30 1027.6
20190420105704 21 78 3.2 11.3 0.00 0.00 0.00 31 1027.7
20190420105205 21 26 3.2 11.3 0.00 0.00 0.00 31 1027.7
20190420104705 21 105 3.2 16.1 0.00 0.00 0.00 32 1027.7
20190420104204 20 41 4.8 16.1 0.00 0.00 0.00 32 1027.8
20190420103705 20 61 4.8 16.1 0.00 0.00 0.00 31 1028.0
20190420103205 20 36 4.8 14.5 0.00 0.00 0.00 32 1028.0
20190420102704 20 14 4.8 14.5 0.00 0.00 0.00 29 1028.1
20190420102204 20 47 4.8 14.5 0.00 0.00 0.00 31 1028.0
20190420101706 20 335 4.8 12.9 0.00 0.00 0.00 32 1028.0
20190420101204 20 42 4.8 12.9 0.00 0.00 0.00 32 1028.1
20190420100705 20 49 4.8 11.3 0.00 0.00 0.00 31 1028.1
20190420100205 20 132 3.2 12.9 0.00 0.00 0.00 31 1028.1
20190420095705 20 110 4.8 12.9 0.00 0.00 0.00 33 1028.1
20190420095205 20 149 3.2 12.9 0.00 0.00 0.00 33 1028.1
20190420094704 20 67 3.2 12.9 0.00 0.00 0.00 32 1028.2
20190420094206 20 64 3.2 12.9 0.00 0.00 0.00 34 1028.2
20190420093705 20 44 1.6 12.9 0.00 0.00 0.00 34 1028.2
20190420093205 20 143 3.2 12.9 0.00 0.00 0.00 33 1028.2
20190420092705 20 86 3.2 8.0 0.00 0.00 0.00 35 1028.2
20190420092204 19 39 3.2 8.0 0.00 0.00 0.00 36 1028.2
20190420091205 19 72 4.8 11.3 0.00 0.00 0.00 35 1028.3
20190420090705 19 77 4.8 11.3 0.00 0.00 0.00 36 1028.3
20190420090205 18 63 4.8 11.3 0.00 0.00 0.00 36 1028.3
20190420085704 18 119 4.8 11.3 0.00 0.00 0.00 36 1028.4
20190420085204 18 39 4.8 11.3 0.00 0.00 0.00 35 1028.4
20190420084706 18 101 4.8 11.3 0.00 0.00 0.00 36 1028.4
20190420084205 18 42 4.8 11.3 0.00 0.00 0.00 37 1028.4
20190420083705 18 72 3.2 9.7 0.00 0.00 0.00 36 1028.4